Dewpoint
10 10 10 11 10 9 8 7 6 3 1 -2 -6 -9 -11 -13 -14 -17 -15 -15 -16 -18 -20 -23 -25 -26 -27 -28 -29 -29 -30 -30
10 10 11 11 9 8 7 6 5 3 1 -3 -6 -9 -11 -12 -14 -16 -15 -15 -17 -19 -20 -22 -23 -25 -27 -28 -29 -29 -30 -30
10 10 11 10 8 7 6 5 4 3 -0 -3 -7 -10 -10 -11 -15 -15 -15 -15 -17 -19 -19 -20 -23 -27 -28 -28 -29 -29 -29 -29
10 10 10 9 7 6 6 5 3 2 0 -3 -6 -7 -9 -11 -14 -15 -16 -17 -18 -19 -19 -22 -25 -28 -28 -28 -29 -29 -27 -27
9 9 9 8 6 6 5 4 3 1 -1 -4 -5 -7 -10 -12 -14 -14 -17 -19 -19 -19 -20 -23 -25 -28 -28 -28 -28 -28 -26 -27
9 9 9 8 6 5 4 3 2 -0 -3 -2 -2 -5 -8 -12 -11 -12 -17 -19 -20 -20 -20 -23 -26 -28 -28 -28 -27 -27 -26 -25
5 9 8 6 4 3 3 2 1 -1 -1 -1 -1 -4 -9 -9 -10 -14 -16 -17 -17 -18 -20 -23 -26 -28 -28 -28 -26 -26 -27 -24
6 7 5 4 3 2 2 2 1 -2 0 -1 -2 -6 -7 -7 -12 -14 -13 -13 -14 -16 -21 -23 -28 -29 -28 -27 -24 -25 -26 -25
5 6 4 4 3 2 2 1 1 -1 -0 -1 -5 -3 -5 -7 -12 -12 -11 -12 -12 -17 -22 -25 -28 -29 -28 -26 -24 -26 -26 -25
5 5 3 3 2 2 1 1 1 -0 -1 -3 -2 -3 -6 -10 -11 -10 -11 -11 -13 -19 -23 -26 -29 -28 -28 -27 -25 -28 -25 -25
5 4 3 3 2 2 1 1 1 0 -2 -2 -2 -4 -8 -9 -9 -10 -10 -10 -15 -19 -23 -27 -29 -29 -28 -27 -27 -28 -25 -25
4 3 3 3 3 2 1 1 0 -0 -2 -2 -3 -5 -8 -9 -10 -8 -8 -11 -14 -18 -24 -28 -29 -28 -28 -28 -28 -28 -27 -27
3 3 3 3 2 2 1 1 0 -1 -2 -2 -3 -7 -8 -9 -8 -5 -7 -11 -10 -19 -26 -28 -29 -28 -28 -29 -28 -28 -28 -28
4 4 3 3 2 2 1 0 -0 -1 -1 -3 -5 -7 -8 -8 -4 -2 -3 -6 -13 -22 -27 -28 -29 -28 -28 -28 -27 -27 -28 -29
3 3 3 3 2 2 1 0 -0 -1 -2 -4 -6 -6 -8 -6 0 1 -7 -10 -15 -24 -27 -29 -29 -28 -28 -26 -24 -24 -26 -28
2 3 3 2 2 2 1 0 -1 -1 -2 -5 -5 -8 -5 3 3 -5 -12 -11 -17 -24 -27 -29 -29 -28 -27 -25 -24 -24 -25 -26
1 1 2 2 2 2 1 0 -1 -1 -2 -5 -4 -6 3 3 -2 -12 -9 -11 -18 -21 -25 -26 -22 -26 -28 -28 -26 -26 -26 -27
1 1 2 2 2 2 1 0 -0 -0 -0 -3 -5 -1 1 1 -7 -1 -10 -13 -16 -20 -24 -22 -19 -27 -31 -32 -30 -27 -29 -30
-0 1 2 2 2 2 1 0 -0 0 1 -1 -4 -2 1 -5 -7 -3 -13 -14 -17 -22 -22 -18 -22 -28 -32 -32 -31 -28 -30 -31
Wind_Speed
39 33 28 37 43 40 35 36 38 37 34 31 29 26 23 18 16 13 11 9 6 4 2 1 4 6 8 10 12 13 15 15
45 40 42 41 45 43 39 37 37 38 38 36 33 30 26 20 16 14 12 10 6 3 1 1 4 6 8 9 11 13 15 16
49 44 46 48 51 46 40 36 37 39 37 34 32 29 24 19 18 15 12 10 7 4 2 1 4 6 7 9 11 14 16 18
49 49 53 54 54 51 46 40 39 38 35 32 30 27 26 24 20 17 14 10 7 5 2 1 3 5 7 9 11 13 15 17
55 54 57 60 56 52 49 44 40 37 35 34 35 34 30 25 20 18 14 11 7 5 3 1 3 5 6 8 10 11 12 14
51 63 66 63 59 56 50 44 39 38 37 37 35 29 25 25 22 18 14 11 8 5 3 0 2 4 5 6 8 10 11 13
56 61 62 59 56 54 49 43 38 39 40 36 34 30 31 27 23 19 15 12 9 6 4 1 2 3 4 5 7 9 9 11
46 50 54 56 58 56 51 45 39 42 38 37 33 32 29 24 20 18 16 13 9 7 3 1 1 1 2 4 5 7 9 9
51 61 60 60 60 58 53 46 42 43 38 35 34 28 28 24 21 18 14 10 9 6 4 2 1 0 1 2 3 4 6 7
48 47 51 54 56 55 52 46 43 45 41 36 34 32 29 27 22 17 12 10 8 6 4 3 2 2 2 2 1 3 3 5
36 40 42 41 45 48 46 44 44 44 43 40 35 33 30 25 20 17 13 10 8 5 4 4 3 3 3 1 2 2 1 3
30 33 43 43 46 49 46 45 45 44 43 41 38 34 29 25 22 17 13 12 7 6 7 6 5 4 3 3 3 3 1 2
26 30 36 40 46 48 48 46 44 42 41 40 38 35 30 27 21 16 13 9 8 11 9 7 6 6 6 5 4 3 1 2
11 24 35 39 43 48 48 46 44 41 40 40 37 33 30 26 19 13 12 9 14 11 9 7 8 8 7 7 6 4 3 2
25 33 34 38 43 47 47 44 42 42 40 39 36 33 29 23 13 17 13 15 13 11 10 10 10 10 9 8 7 6 3 2
27 33 35 39 42 45 46 46 44 41 39 38 38 36 28 19 22 23 17 15 12 11 12 13 12 11 10 9 7 6 4 2
28 30 39 42 44 47 48 47 45 42 38 40 40 36 30 29 23 20 17 17 15 15 16 14 12 12 12 10 7 7 5 2
31 35 38 43 48 50 51 50 47 41 37 40 41 36 26 24 24 22 25 20 18 18 15 12 11 11 12 9 9 8 6 3
34 35 39 42 46 49 50 49 45 42 41 43 41 32 29 26 26 27 26 22 21 19 17 14 13 13 13 11 9 8 6 5
Wind_Direction
201 197 188 190 207 207 207 205 197 198 200 196 193 193 196 194 190 184 182 185 195 172 171 27 341 333 338 339 342 344 346 353
197 192 181 193 199 206 208 205 200 199 196 193 191 190 193 190 192 188 184 186 186 192 180 13 318 330 335 344 348 349 347 355
191 187 186 197 196 204 206 207 202 199 199 196 195 192 190 193 190 188 185 187 178 192 212 308 323 336 341 349 350 355 357 2
188 185 190 196 195 201 205 205 205 202 200 194 191 190 190 188 187 187 184 184 184 186 202 283 316 347 346 353 355 356 6 5
193 187 190 195 197 200 202 202 205 201 198 195 196 195 193 189 187 183 181 179 183 188 200 250 347 351 355 356 354 359 6 8
193 191 195 197 196 196 199 198 200 195 191 197 201 201 195 188 182 181 178 178 180 188 192 229 354 358 360 357 354 2 6 8
201 190 186 191 192 192 193 195 195 190 190 200 204 203 194 189 182 179 180 178 176 183 182 136 1 8 1 353 354 0 3 8
186 176 176 181 187 191 192 192 188 188 194 198 203 201 199 190 185 185 180 178 172 183 165 143 75 8 359 343 2 358 353 0
187 181 178 183 185 186 188 188 187 188 193 197 194 200 198 196 189 181 182 174 183 174 165 162 169 155 269 336 4 351 338 354
181 173 171 176 179 185 189 187 188 188 191 191 193 198 199 191 182 180 176 186 190 178 178 184 188 171 245 306 358 309 319 354
158 162 164 171 171 178 186 191 190 186 186 184 193 199 194 186 179 178 185 191 182 181 196 199 184 193 235 274 246 255 294 10
155 160 168 180 185 183 184 189 187 184 187 188 193 195 190 186 182 179 185 188 168 206 208 196 192 197 210 223 212 219 196 50
157 164 168 173 174 178 184 188 189 188 191 191 191 188 186 187 183 182 186 176 225 213 200 192 193 197 205 209 204 195 168 84
143 172 180 178 179 181 184 187 189 190 194 191 187 183 188 187 184 188 198 200 216 198 198 195 201 199 202 200 191 188 168 121
166 180 183 186 184 185 187 188 193 195 195 190 184 184 186 189 186 220 188 214 208 198 200 202 205 207 204 198 189 180 183 146
174 177 183 184 184 186 190 191 194 197 194 188 183 184 183 185 206 206 196 216 203 198 204 205 208 204 200 201 196 190 200 184
193 192 188 191 193 192 191 192 196 198 193 188 187 183 185 200 194 189 209 216 204 201 209 210 199 202 203 204 203 209 209 210
195 197 200 198 196 197 194 196 197 195 192 195 191 196 194 201 187 209 213 207 205 209 214 203 198 200 205 199 204 206 211 212
202 206 204 204 201 198 198 195 196 198 193 196 196 201 204 193 196 213 205 203 209 212 209 210 211 207 208 205 201 201 198 189
Height
1435 1443 1448 1455 1465 1471 1473 1476 1478 1484 1492 1494 1495 1498 1501 1505 1508 1510 1511 1512 1512 1512 1512 1512 1512 1511 1511 1510 1508 1507 1506 1505
1429 1434 1440 1442 1455 1462 1466 1471 1476 1479 1482 1487 1489 1492 1496 1501 1504 1506 1508 1509 1510 1510 1510 1509 1509 1509 1508 1507 1506 1504 1502 1502
1421 1427 1432 1431 1437 1450 1460 1467 1474 1474 1480 1485 1489 1490 1494 1499 1500 1503 1505 1506 1507 1507 1507 1506 1506 1507 1506 1505 1504 1501 1500 1499
1413 1419 1419 1423 1429 1435 1445 1457 1467 1474 1479 1483 1487 1489 1491 1493 1496 1499 1501 1503 1504 1504 1504 1504 1504 1504 1504 1503 1501 1501 1500 1498
1400 1408 1413 1414 1419 1427 1434 1444 1454 1467 1475 1478 1479 1481 1484 1489 1492 1495 1498 1500 1501 1502 1502 1502 1502 1501 1502 1500 1500 1500 1499 1498
1392 1391 1396 1403 1410 1418 1428 1439 1449 1456 1466 1470 1475 1481 1485 1485 1488 1491 1494 1497 1498 1499 1500 1500 1500 1499 1500 1499 1499 1499 1499 1498
1379 1382 1391 1398 1407 1415 1423 1434 1447 1454 1457 1466 1473 1477 1479 1481 1484 1487 1490 1493 1495 1497 1497 1497 1498 1498 1498 1497 1497 1497 1498 1497
1374 1379 1385 1389 1398 1407 1415 1426 1440 1449 1456 1463 1470 1473 1477 1479 1481 1483 1486 1490 1492 1493 1494 1495 1496 1497 1497 1496 1497 1496 1497 1497
1361 1365 1373 1378 1389 1398 1407 1419 1431 1444 1453 1461 1466 1471 1476 1478 1478 1481 1484 1487 1490 1490 1492 1493 1495 1496 1495 1496 1496 1496 1496 1495
1353 1368 1372 1378 1388 1397 1405 1416 1426 1436 1443 1454 1462 1468 1473 1474 1476 1479 1482 1486 1487 1488 1490 1492 1493 1494 1494 1495 1496 1497 1495 1493
1360 1368 1378 1387 1393 1403 1411 1418 1425 1432 1440 1446 1458 1465 1470 1472 1474 1477 1480 1483 1484 1486 1489 1491 1492 1493 1494 1495 1496 1497 1495 1492
1370 1376 1378 1385 1392 1401 1411 1417 1425 1430 1437 1443 1452 1462 1467 1471 1473 1476 1478 1479 1480 1486 1487 1488 1490 1491 1493 1494 1495 1496 1493 1492
1379 1382 1387 1387 1389 1400 1407 1416 1423 1430 1435 1440 1448 1457 1464 1468 1471 1473 1475 1475 1480 1483 1484 1485 1486 1488 1490 1491 1494 1494 1492 1491
1387 1392 1388 1387 1395 1400 1406 1413 1419 1427 1433 1436 1445 1453 1460 1465 1469 1470 1472 1473 1478 1479 1482 1483 1486 1486 1488 1489 1490 1491 1491 1489
1382 1390 1391 1394 1394 1397 1403 1412 1418 1423 1428 1434 1443 1450 1457 1463 1464 1468 1468 1473 1475 1477 1479 1481 1483 1484 1485 1488 1488 1488 1489 1488
1376 1381 1389 1395 1396 1398 1402 1406 1413 1421 1426 1432 1438 1444 1452 1457 1462 1465 1468 1471 1473 1475 1477 1480 1481 1483 1483 1485 1486 1485 1486 1486
1371 1374 1377 1383 1388 1394 1399 1404 1410 1417 1424 1431 1434 1441 1447 1451 1456 1461 1466 1469 1471 1472 1475 1478 1479 1481 1482 1483 1485 1485 1484 1484
1363 1369 1373 1376 1381 1386 1391 1397 1404 1414 1422 1429 1433 1437 1442 1448 1453 1458 1462 1465 1467 1470 1473 1476 1478 1478 1479 1481 1483 1483 1483 1483
1359 1364 1370 1375 1377 1383 1391 1396 1403 1410 1416 1424 1430 1435 1440 1445 1450 1455 1458 1462 1465 1468 1470 1474 1475 1475 1477 1479 1480 1482 1481 1482